Location: Poughquag
(41.6090°N, 73.6820°W)
Time: 20:49:53
(UTC-04:00)

ISS - Visible Passes

Search period start: 29 March 2017 00:00
Search period end: 08 April 2017 00:00
Orbit: 399 x 409 km, 51.6° (Epoch: 30 March)

Date Brightness Start Highest point End Pass type
(mag) Time Alt. Az. Time Alt. Az. Time Alt. Az.
29 Mar -3.8 20:16:43 10° WSW 20:19:58 79° NNW 20:23:09 11° NE visible
29 Mar -0.9 21:54:23 10° WNW 21:55:49 17° NW 21:55:49 17° NW visible
30 Mar -1.7 21:01:30 10° W 21:04:16 25° NNW 21:06:02 16° NNE visible
31 Mar -2.4 20:08:41 10° W 20:11:45 37° NNW 20:14:50 10° NE visible
31 Mar -1.0 21:46:53 10° NW 21:48:44 15° NNW 21:48:44 15° NNW visible
01 Apr -1.2 20:53:56 10° WNW 20:56:15 18° NNW 20:58:35 10° NNE visible
02 Apr -1.6 20:00:58 10° WNW 20:03:38 23° NNW 20:06:18 10° NE visible
02 Apr -1.1 21:39:07 10° NW 21:40:59 14° N 21:41:05 14° N visible
03 Apr -1.1 20:46:19 10° NW 20:48:16 15° N 20:50:13 10° NNE visible
03 Apr -0.3 22:23:18 10° NNW 22:23:27 11° NNW 22:23:27 11° NNW visible
04 Apr -1.2 19:53:21 10° NW 19:55:33 17° NNW 19:57:46 10° NNE visible
04 Apr -1.3 21:30:55 10° NNW 21:32:59 15° N 21:33:06 15° NNE visible
05 Apr -1.2 20:38:23 10° NNW 20:40:15 14° N 20:42:08 10° NE visible
05 Apr -0.6 22:14:42 10° NW 22:15:22 14° NNW 22:15:22 14° NNW visible
06 Apr -1.7 21:22:24 10° NNW 21:24:53 20° NNE 21:24:58 20° NNE visible
07 Apr -1.4 20:30:02 10° NNW 20:32:10 16° N 20:34:19 10° NE visible
07 Apr -1.1 22:06:03 10° NW 22:07:12 19° NW 22:07:12 19° NW visible
